Year,Month,Day,Hour,Minute,Value (Times are PST for temperature in C)
2008,06,23,00,00,10.60
2008,06,23,00,01,10.40
2008,06,23,00,02,10.40
2008,06,23,00,03,10.40
2008,06,23,00,04,10.40
2008,06,23,00,05,10.40
2008,06,23,00,06,10.40
2008,06,23,00,07,10.40
2008,06,23,00,08,10.40
2008,06,23,00,09,10.40
2008,06,23,00,10,10.40
2008,06,23,00,11,10.40
2008,06,23,00,12,10.40
2008,06,23,00,13,10.40
2008,06,23,00,14,10.40
2008,06,23,00,15,10.40
2008,06,23,00,16,10.40
2008,06,23,00,17,10.40
2008,06,23,00,18,10.40
2008,06,23,00,19,10.40
2008,06,23,00,20,10.40
2008,06,23,00,21,10.40
2008,06,23,00,22,10.40
2008,06,23,00,23,10.40
2008,06,23,00,24,10.40
2008,06,23,00,25,10.40
2008,06,23,00,26,10.40
2008,06,23,00,27,10.40
2008,06,23,00,28,10.40
2008,06,23,00,29,10.40
2008,06,23,00,30,10.40
2008,06,23,00,31,10.40
2008,06,23,00,32,10.40
2008,06,23,00,33,10.30
2008,06,23,00,34,10.30
2008,06,23,00,35,10.30
2008,06,23,00,36,10.30
2008,06,23,00,37,10.30
2008,06,23,00,38,10.30
2008,06,23,00,39,10.30
2008,06,23,00,40,10.30
2008,06,23,00,41,10.30
2008,06,23,00,42,10.30
2008,06,23,00,43,10.30
2008,06,23,00,44,10.30
2008,06,23,00,45,10.30
2008,06,23,00,46,10.30
2008,06,23,00,47,10.30
2008,06,23,00,48,10.30
2008,06,23,00,49,10.30
2008,06,23,00,50,10.30
2008,06,23,00,51,10.30
2008,06,23,00,52,10.30
2008,06,23,00,53,10.30
2008,06,23,00,54,10.30
2008,06,23,00,55,10.30
2008,06,23,00,56,10.30
2008,06,23,00,57,10.30
2008,06,23,00,58,10.30
2008,06,23,00,59,10.30
2008,06,23,01,00,10.20
2008,06,23,01,01,10.20
2008,06,23,01,02,10.20
2008,06,23,01,03,10.20
2008,06,23,01,04,10.20
2008,06,23,01,05,10.20
2008,06,23,01,06,10.20
2008,06,23,01,07,10.10
2008,06,23,01,08,10.10
2008,06,23,01,09,10.10
2008,06,23,01,10,10.10
2008,06,23,01,11,10.10
2008,06,23,01,12,10.10
2008,06,23,01,13,10.10
2008,06,23,01,14,10.10
2008,06,23,01,15,10.10
2008,06,23,01,16,10.10
2008,06,23,01,17,10.10
2008,06,23,01,18,10.10
2008,06,23,01,19,10.10
2008,06,23,01,20,10.10
2008,06,23,01,21,10.10
2008,06,23,01,22,10.10
2008,06,23,01,23,10.10
2008,06,23,01,24,10.10
2008,06,23,01,25,10.10
2008,06,23,01,26,10.10
2008,06,23,01,27,10.10
2008,06,23,01,28,10.10
2008,06,23,01,29,10.10
2008,06,23,01,30,10.10
2008,06,23,01,31,10.10
2008,06,23,01,32,10.10
2008,06,23,01,33,10.10
2008,06,23,01,34,10.00
2008,06,23,01,35,9.90
2008,06,23,01,36,9.90
2008,06,23,01,37,9.90
2008,06,23,01,38,9.80
2008,06,23,01,39,9.80
2008,06,23,01,40,9.80
2008,06,23,01,41,9.80
2008,06,23,01,42,9.80
2008,06,23,01,43,9.80
2008,06,23,01,44,9.80
2008,06,23,01,45,9.80
2008,06,23,01,46,9.80
2008,06,23,01,47,9.80
2008,06,23,01,48,9.80
2008,06,23,01,49,9.80
2008,06,23,01,50,9.80
2008,06,23,01,51,9.80
2008,06,23,01,52,9.80
2008,06,23,01,53,9.80
2008,06,23,01,54,9.70
2008,06,23,01,55,9.70
2008,06,23,01,56,9.70
2008,06,23,01,57,9.70
2008,06,23,01,58,9.80
2008,06,23,01,59,9.80
2008,06,23,02,00,9.90
2008,06,23,02,01,9.90
2008,06,23,02,02,9.90
2008,06,23,02,03,9.90
2008,06,23,02,04,9.90
2008,06,23,02,05,9.90
2008,06,23,02,06,9.90
2008,06,23,02,07,9.90
2008,06,23,02,08,9.80
2008,06,23,02,09,9.80
2008,06,23,02,10,9.80
2008,06,23,02,11,9.70
2008,06,23,02,12,9.70
2008,06,23,02,13,9.70
2008,06,23,02,14,9.70
2008,06,23,02,15,9.70
2008,06,23,02,16,9.70
2008,06,23,02,17,9.70
2008,06,23,02,18,9.60
2008,06,23,02,19,9.60
2008,06,23,02,20,9.60
2008,06,23,02,21,9.60
2008,06,23,02,22,9.60
2008,06,23,02,23,9.50
2008,06,23,02,24,9.50
2008,06,23,02,25,9.50
2008,06,23,02,26,9.50
2008,06,23,02,27,9.50
2008,06,23,02,28,9.50
2008,06,23,02,29,9.50
2008,06,23,02,30,9.40
2008,06,23,02,31,9.30
2008,06,23,02,32,9.30
2008,06,23,02,33,9.30
2008,06,23,02,34,9.30
2008,06,23,02,35,9.20
2008,06,23,02,36,9.20
2008,06,23,02,37,9.20
2008,06,23,02,38,9.20
2008,06,23,02,39,9.20
2008,06,23,02,40,9.20
2008,06,23,02,41,9.20
2008,06,23,02,42,9.20
2008,06,23,02,43,9.20
2008,06,23,02,44,9.20
2008,06,23,02,45,9.20
2008,06,23,02,46,9.20
2008,06,23,02,47,9.20
2008,06,23,02,48,9.20
2008,06,23,02,49,9.20
2008,06,23,02,50,9.20
2008,06,23,02,51,9.20
2008,06,23,02,52,9.20
2008,06,23,02,53,9.20
2008,06,23,02,54,9.20
2008,06,23,02,55,9.20
2008,06,23,02,56,9.20
2008,06,23,02,57,9.20
2008,06,23,02,58,9.20
2008,06,23,02,59,9.20
2008,06,23,03,00,9.20
2008,06,23,03,01,9.20
2008,06,23,03,02,9.20
2008,06,23,03,03,9.20
2008,06,23,03,04,9.10
2008,06,23,03,05,9.10
2008,06,23,03,06,9.10
2008,06,23,03,07,9.00
2008,06,23,03,08,9.00
2008,06,23,03,09,8.90
2008,06,23,03,10,8.80
2008,06,23,03,11,8.70
2008,06,23,03,12,8.50
2008,06,23,03,13,8.50
2008,06,23,03,14,8.40
2008,06,23,03,15,8.30
2008,06,23,03,16,8.20
2008,06,23,03,17,8.10
2008,06,23,03,18,8.00
2008,06,23,03,19,8.00
2008,06,23,03,20,7.90
2008,06,23,03,21,7.90
2008,06,23,03,22,7.80
2008,06,23,03,23,7.80
2008,06,23,03,24,7.70
2008,06,23,03,25,7.70
2008,06,23,03,26,7.60
2008,06,23,03,27,7.60
2008,06,23,03,28,7.60
2008,06,23,03,29,7.50
2008,06,23,03,30,7.50
2008,06,23,03,31,7.50
2008,06,23,03,32,7.50
2008,06,23,03,33,7.50
2008,06,23,03,34,7.50
2008,06,23,03,35,7.50
2008,06,23,03,36,7.50
2008,06,23,03,37,7.50
2008,06,23,03,38,7.40
2008,06,23,03,39,7.40
2008,06,23,03,40,7.40
2008,06,23,03,41,7.30
2008,06,23,03,42,7.30
2008,06,23,03,43,7.30
2008,06,23,03,44,7.30
2008,06,23,03,45,7.30
2008,06,23,03,46,7.20
2008,06,23,03,47,7.20
2008,06,23,03,48,7.10
2008,06,23,03,49,7.10
2008,06,23,03,50,7.00
2008,06,23,03,51,7.00
2008,06,23,03,52,6.90
2008,06,23,03,53,6.80
2008,06,23,03,54,6.80
2008,06,23,03,55,6.80
2008,06,23,03,56,6.70
2008,06,23,03,57,6.70
2008,06,23,03,58,6.60
2008,06,23,03,59,6.60
2008,06,23,04,00,6.60
2008,06,23,04,01,6.60
2008,06,23,04,02,6.60
2008,06,23,04,03,6.60
2008,06,23,04,04,6.60
2008,06,23,04,05,6.60
2008,06,23,04,06,6.60
2008,06,23,04,07,6.60
2008,06,23,04,08,6.60
2008,06,23,04,09,6.50
2008,06,23,04,10,6.30
2008,06,23,04,11,6.30
2008,06,23,04,12,6.30
2008,06,23,04,13,6.30
2008,06,23,04,14,6.30
2008,06,23,04,15,6.30
2008,06,23,04,16,6.30
2008,06,23,04,17,6.30
2008,06,23,04,18,6.30
2008,06,23,04,19,6.20
2008,06,23,04,20,6.20
2008,06,23,04,21,6.20
2008,06,23,04,22,6.20
2008,06,23,04,23,6.20
2008,06,23,04,24,6.20
2008,06,23,04,25,6.10
2008,06,23,04,26,6.10
2008,06,23,04,27,6.10
2008,06,23,04,28,6.10
2008,06,23,04,29,6.10
2008,06,23,04,30,6.10
2008,06,23,04,31,6.10
2008,06,23,04,32,6.10
2008,06,23,04,33,6.10
2008,06,23,04,34,6.10
2008,06,23,04,35,6.10
2008,06,23,04,36,6.10
2008,06,23,04,37,6.10
2008,06,23,04,38,6.10
2008,06,23,04,39,6.10
2008,06,23,04,40,6.10
2008,06,23,04,41,6.10
2008,06,23,04,42,6.10
2008,06,23,04,43,6.10
2008,06,23,04,44,6.10
2008,06,23,04,45,6.10
2008,06,23,04,46,6.00
2008,06,23,04,47,6.00
2008,06,23,04,48,6.00
2008,06,23,04,49,6.00
2008,06,23,04,50,6.00
2008,06,23,04,51,6.00
2008,06,23,04,52,6.00
2008,06,23,04,53,6.00
2008,06,23,04,54,6.00
2008,06,23,04,55,6.00
2008,06,23,04,56,6.00
2008,06,23,04,57,6.00
2008,06,23,04,58,6.00
2008,06,23,04,59,6.10
2008,06,23,05,00,6.10
2008,06,23,05,01,6.10
2008,06,23,05,02,6.10
2008,06,23,05,03,6.10
2008,06,23,05,04,6.10
2008,06,23,05,05,6.10
2008,06,23,05,06,6.10
2008,06,23,05,07,6.10
2008,06,23,05,08,6.10
2008,06,23,05,09,6.10
2008,06,23,05,10,6.10
2008,06,23,05,11,6.10
2008,06,23,05,12,6.10
2008,06,23,05,13,6.10
2008,06,23,05,14,6.10
2008,06,23,05,15,6.10
2008,06,23,05,16,6.10
2008,06,23,05,17,6.10
2008,06,23,05,18,6.10
2008,06,23,05,19,6.10
2008,06,23,05,20,6.20
2008,06,23,05,21,6.10
2008,06,23,05,22,6.10
2008,06,23,05,23,6.10
2008,06,23,05,24,6.10
2008,06,23,05,25,6.10
2008,06,23,05,26,6.10
2008,06,23,05,27,6.10
2008,06,23,05,28,6.10
2008,06,23,05,29,6.10
2008,06,23,05,30,6.10
2008,06,23,05,31,6.10
2008,06,23,05,32,6.10
2008,06,23,05,33,6.10
2008,06,23,05,34,6.10
2008,06,23,05,35,6.10
2008,06,23,05,36,6.10
2008,06,23,05,37,6.10
2008,06,23,05,38,6.10
2008,06,23,05,39,6.10
2008,06,23,05,40,6.10
2008,06,23,05,41,6.10
2008,06,23,05,42,6.20
2008,06,23,05,43,6.20
2008,06,23,05,44,6.20
2008,06,23,05,45,6.20
2008,06,23,05,46,6.20
2008,06,23,05,47,6.20
2008,06,23,05,48,6.20
2008,06,23,05,49,6.20
2008,06,23,05,50,6.20
2008,06,23,05,51,6.20
2008,06,23,05,52,6.20
2008,06,23,05,53,6.20
2008,06,23,05,54,6.20
2008,06,23,05,55,6.20
2008,06,23,05,56,6.20
2008,06,23,05,57,6.20
2008,06,23,05,58,6.20
2008,06,23,05,59,6.20
2008,06,23,06,00,6.20
2008,06,23,06,01,6.10
2008,06,23,06,02,6.10
2008,06,23,06,03,6.10
2008,06,23,06,04,6.10
2008,06,23,06,05,6.00
2008,06,23,06,06,6.00
2008,06,23,06,07,6.00
2008,06,23,06,08,6.00
2008,06,23,06,09,6.00
2008,06,23,06,10,6.10
2008,06,23,06,11,6.10
2008,06,23,06,12,6.10
2008,06,23,06,13,6.10
2008,06,23,06,14,6.20
2008,06,23,06,15,6.20
2008,06,23,06,16,6.20
2008,06,23,06,17,6.20
2008,06,23,06,18,6.30
2008,06,23,06,19,6.30
2008,06,23,06,20,6.40
2008,06,23,06,21,6.40
2008,06,23,06,22,6.40
2008,06,23,06,23,6.40
2008,06,23,06,24,6.60
2008,06,23,06,25,6.60
2008,06,23,06,26,6.60
2008,06,23,06,27,6.60
2008,06,23,06,28,6.70
2008,06,23,06,29,6.70
2008,06,23,06,30,6.80
2008,06,23,06,31,6.80
2008,06,23,06,32,6.90
2008,06,23,06,33,6.90
2008,06,23,06,34,7.00
2008,06,23,06,35,7.10
2008,06,23,06,36,7.10
2008,06,23,06,37,7.20
2008,06,23,06,38,7.30
2008,06,23,06,39,7.30
2008,06,23,06,40,7.40
2008,06,23,06,41,7.50
2008,06,23,06,42,7.50
2008,06,23,06,43,7.60
2008,06,23,06,44,7.70
2008,06,23,06,45,7.70
2008,06,23,06,46,7.90
2008,06,23,06,47,8.00
2008,06,23,06,48,8.10
2008,06,23,06,49,8.20
2008,06,23,06,50,8.20
2008,06,23,06,51,8.20
2008,06,23,06,52,8.20
2008,06,23,06,53,8.20
2008,06,23,06,54,8.70
2008,06,23,06,55,8.90
2008,06,23,06,56,9.00
2008,06,23,06,57,9.20
2008,06,23,06,58,9.40
2008,06,23,06,59,9.50
2008,06,23,07,00,9.70
2008,06,23,07,01,9.80
2008,06,23,07,02,9.90
2008,06,23,07,03,10.00
2008,06,23,07,04,10.10
2008,06,23,07,05,10.20
2008,06,23,07,06,10.30
2008,06,23,07,07,10.40
2008,06,23,07,08,10.40
2008,06,23,07,09,10.40
2008,06,23,07,10,10.50
2008,06,23,07,11,10.60
2008,06,23,07,12,10.60
2008,06,23,07,13,10.60
2008,06,23,07,14,10.60
2008,06,23,07,15,10.60
2008,06,23,07,16,10.60
2008,06,23,07,17,10.60
2008,06,23,07,18,10.70
2008,06,23,07,19,10.90
2008,06,23,07,20,10.90
2008,06,23,07,21,10.90
2008,06,23,07,22,10.90
2008,06,23,07,23,10.90
2008,06,23,07,24,11.10
2008,06,23,07,25,11.00
2008,06,23,07,26,10.90
2008,06,23,07,27,10.90
2008,06,23,07,28,10.90
2008,06,23,07,29,10.90
2008,06,23,07,30,10.90
2008,06,23,07,31,10.90
2008,06,23,07,32,10.90
2008,06,23,07,33,10.90
2008,06,23,07,34,10.90
2008,06,23,07,35,11.00
2008,06,23,07,36,11.10
2008,06,23,07,37,11.10
2008,06,23,07,38,11.10
2008,06,23,07,39,11.10
2008,06,23,07,40,11.10
2008,06,23,07,41,11.10
2008,06,23,07,42,11.10
2008,06,23,07,43,11.00
2008,06,23,07,44,10.90
2008,06,23,07,45,10.90
2008,06,23,07,46,11.00
2008,06,23,07,47,11.10
2008,06,23,07,48,11.10
2008,06,23,07,49,11.20
2008,06,23,07,50,11.30
2008,06,23,07,51,11.40
2008,06,23,07,52,11.60
2008,06,23,07,53,11.60
2008,06,23,07,54,11.70
2008,06,23,07,55,11.80
2008,06,23,07,56,11.90
2008,06,23,07,57,12.10
2008,06,23,07,58,12.20
2008,06,23,07,59,12.20
2008,06,23,08,00,12.20
2008,06,23,08,01,12.10
2008,06,23,08,02,12.10
2008,06,23,08,03,12.10
2008,06,23,08,04,12.20
2008,06,23,08,05,12.30
2008,06,23,08,06,12.30
2008,06,23,08,07,12.50
2008,06,23,08,08,12.60
2008,06,23,08,09,12.60
2008,06,23,08,10,12.70
2008,06,23,08,11,12.80
2008,06,23,08,12,12.80
2008,06,23,08,13,12.90
2008,06,23,08,14,13.00
2008,06,23,08,15,13.00
2008,06,23,08,16,13.00
2008,06,23,08,17,13.00
2008,06,23,08,18,13.00
2008,06,23,08,19,13.00
2008,06,23,08,20,13.00
2008,06,23,08,21,13.00
2008,06,23,08,22,13.10
2008,06,23,08,23,13.10
2008,06,23,08,24,13.10
2008,06,23,08,25,13.20
2008,06,23,08,26,13.20
2008,06,23,08,27,13.20
2008,06,23,08,28,13.30
2008,06,23,08,29,13.30
2008,06,23,08,30,13.30
2008,06,23,08,31,13.40
2008,06,23,08,32,13.40
2008,06,23,08,33,13.50
2008,06,23,08,34,13.50
2008,06,23,08,35,13.60
2008,06,23,08,36,13.70
2008,06,23,08,37,13.80
2008,06,23,08,38,13.90
2008,06,23,08,39,13.90
2008,06,23,08,40,14.00
2008,06,23,08,41,14.10
2008,06,23,08,42,14.20
2008,06,23,08,43,14.20
2008,06,23,08,44,14.20
2008,06,23,08,45,14.30
2008,06,23,08,46,14.30
2008,06,23,08,47,14.30
2008,06,23,08,48,14.20
2008,06,23,08,49,14.20
2008,06,23,08,50,14.20
2008,06,23,08,51,14.20
2008,06,23,08,52,14.20
2008,06,23,08,53,14.20
2008,06,23,08,54,14.30
2008,06,23,08,55,14.30
2008,06,23,08,56,14.40
2008,06,23,08,57,14.40
2008,06,23,08,58,14.40
2008,06,23,08,59,14.40
2008,06,23,09,00,14.40
2008,06,23,09,01,14.40
2008,06,23,09,02,14.40
2008,06,23,09,03,14.30
2008,06,23,09,04,14.30
2008,06,23,09,05,14.30
2008,06,23,09,06,14.40
2008,06,23,09,07,14.50
2008,06,23,09,08,14.50
2008,06,23,09,09,14.60
2008,06,23,09,10,14.70
2008,06,23,09,11,14.80
2008,06,23,09,12,14.80
2008,06,23,09,13,14.80
2008,06,23,09,14,14.80
2008,06,23,09,15,14.80
2008,06,23,09,16,14.80
2008,06,23,09,17,14.80
2008,06,23,09,18,14.80
2008,06,23,09,19,14.80
2008,06,23,09,20,14.80
2008,06,23,09,21,14.80
2008,06,23,09,22,14.80
2008,06,23,09,23,14.90
2008,06,23,09,24,14.90
2008,06,23,09,25,15.00
2008,06,23,09,26,15.10
2008,06,23,09,27,15.10
2008,06,23,09,28,15.20
2008,06,23,09,29,15.30
2008,06,23,09,30,15.20
2008,06,23,09,31,15.20
2008,06,23,09,32,15.20
2008,06,23,09,33,15.20
2008,06,23,09,34,15.10
2008,06,23,09,35,15.10
2008,06,23,09,36,15.10
2008,06,23,09,37,15.20
2008,06,23,09,38,15.20
2008,06,23,09,39,15.20
2008,06,23,09,40,15.30
2008,06,23,09,41,15.30
2008,06,23,09,42,15.30
2008,06,23,09,43,15.40
2008,06,23,09,44,15.40
2008,06,23,09,45,15.50
2008,06,23,09,46,15.50
2008,06,23,09,47,15.50
2008,06,23,09,48,15.40
2008,06,23,09,49,15.30
2008,06,23,09,50,15.20
2008,06,23,09,51,15.10
2008,06,23,09,52,15.00
2008,06,23,09,53,14.90
2008,06,23,09,54,14.80
2008,06,23,09,55,14.70
2008,06,23,09,56,14.70
2008,06,23,09,57,14.70
2008,06,23,09,58,14.60
2008,06,23,09,59,14.50
2008,06,23,10,00,14.50
2008,06,23,10,01,14.40
2008,06,23,10,02,14.40
2008,06,23,10,03,14.30
2008,06,23,10,04,14.40
2008,06,23,10,05,14.30
2008,06,23,10,06,14.20
2008,06,23,10,07,14.30
2008,06,23,10,08,14.40
2008,06,23,10,09,14.40
2008,06,23,10,10,14.40
2008,06,23,10,11,14.40
2008,06,23,10,12,14.40
2008,06,23,10,13,14.50
2008,06,23,10,14,14.50
2008,06,23,10,15,14.50
2008,06,23,10,16,14.50
2008,06,23,10,17,14.50
2008,06,23,10,18,14.40
2008,06,23,10,19,14.30
2008,06,23,10,20,14.40
2008,06,23,10,21,14.40
2008,06,23,10,22,14.50
2008,06,23,10,23,14.50
2008,06,23,10,24,14.50
2008,06,23,10,25,14.30
2008,06,23,10,26,14.30
2008,06,23,10,27,14.40
2008,06,23,10,28,14.50
2008,06,23,10,29,14.50
2008,06,23,10,30,14.50
2008,06,23,10,31,14.40
2008,06,23,10,32,14.30
2008,06,23,10,33,14.30
2008,06,23,10,34,14.30
2008,06,23,10,35,14.40
2008,06,23,10,36,14.40
2008,06,23,10,37,14.40
2008,06,23,10,38,14.40
2008,06,23,10,39,14.50
2008,06,23,10,40,14.50
2008,06,23,10,41,14.50
2008,06,23,10,42,14.40
2008,06,23,10,43,14.40
2008,06,23,10,44,14.40
2008,06,23,10,45,14.40
2008,06,23,10,46,14.40
2008,06,23,10,47,14.30
2008,06,23,10,48,14.30
2008,06,23,10,49,14.30
2008,06,23,10,50,14.30
2008,06,23,10,51,14.30
2008,06,23,10,52,14.40
2008,06,23,10,53,14.70
2008,06,23,10,54,14.70
2008,06,23,10,55,14.70
2008,06,23,10,56,14.70
2008,06,23,10,57,14.80
2008,06,23,10,58,14.80
2008,06,23,10,59,14.70
2008,06,23,11,00,14.70
2008,06,23,11,01,14.60
2008,06,23,11,02,14.50
2008,06,23,11,03,14.50
2008,06,23,11,04,14.40
2008,06,23,11,05,14.40
2008,06,23,11,06,14.40
2008,06,23,11,07,14.50
2008,06,23,11,08,14.60
2008,06,23,11,09,14.60
2008,06,23,11,10,14.70
2008,06,23,11,11,14.70
2008,06,23,11,12,14.60
2008,06,23,11,13,14.50
2008,06,23,11,14,14.50
2008,06,23,11,15,14.50
2008,06,23,11,16,14.40
2008,06,23,11,17,14.50
2008,06,23,11,18,14.40
2008,06,23,11,19,14.40
2008,06,23,11,20,14.40
2008,06,23,11,21,14.50
2008,06,23,11,22,14.50
2008,06,23,11,23,14.50
2008,06,23,11,24,14.50
2008,06,23,11,25,14.40
2008,06,23,11,26,14.40
2008,06,23,11,27,14.30
2008,06,23,11,28,14.20
2008,06,23,11,29,14.20
2008,06,23,11,30,14.20
2008,06,23,11,31,14.20
2008,06,23,11,32,14.20
2008,06,23,11,33,14.20
2008,06,23,11,34,14.20
2008,06,23,11,35,14.20
2008,06,23,11,36,14.40
2008,06,23,11,37,14.50
2008,06,23,11,38,14.50
2008,06,23,11,39,14.50
2008,06,23,11,40,14.60
2008,06,23,11,41,14.60
2008,06,23,11,42,14.70
2008,06,23,11,43,14.60
2008,06,23,11,44,14.60
2008,06,23,11,45,14.60
2008,06,23,11,46,14.50
2008,06,23,11,47,14.50
2008,06,23,11,48,14.50
2008,06,23,11,49,14.60
2008,06,23,11,50,14.60
2008,06,23,11,51,14.70
2008,06,23,11,52,14.70
2008,06,23,11,53,14.70
2008,06,23,11,54,14.80
2008,06,23,11,55,14.80
2008,06,23,11,56,14.90
2008,06,23,11,57,14.90
2008,06,23,11,58,14.90
2008,06,23,11,59,15.00
2008,06,23,12,00,15.00
2008,06,23,12,01,15.10
2008,06,23,12,02,15.10
2008,06,23,12,03,15.10
2008,06,23,12,04,15.10
2008,06,23,12,05,15.10
2008,06,23,12,06,15.10
2008,06,23,12,07,15.00
2008,06,23,12,08,15.00
2008,06,23,12,09,15.00
2008,06,23,12,10,15.00
2008,06,23,12,11,15.00
2008,06,23,12,12,15.00
2008,06,23,12,13,15.00
2008,06,23,12,14,15.10
2008,06,23,12,15,15.10
2008,06,23,12,16,15.10
2008,06,23,12,17,15.10
2008,06,23,12,18,15.10
2008,06,23,12,19,15.10
2008,06,23,12,20,15.10
2008,06,23,12,21,15.10
2008,06,23,12,22,15.10
2008,06,23,12,23,15.10
2008,06,23,12,24,15.00
2008,06,23,12,25,15.00
2008,06,23,12,26,15.10
2008,06,23,12,27,15.20
2008,06,23,12,28,15.20
2008,06,23,12,29,15.20
2008,06,23,12,30,15.30
2008,06,23,12,31,15.30
2008,06,23,12,32,15.40
2008,06,23,12,33,15.40
2008,06,23,12,34,15.40
2008,06,23,12,35,15.30
2008,06,23,12,36,15.30
2008,06,23,12,37,15.30
2008,06,23,12,38,15.30
2008,06,23,12,39,15.20
2008,06,23,12,40,15.20
2008,06,23,12,41,15.30
2008,06,23,12,42,15.30
2008,06,23,12,43,15.20
2008,06,23,12,44,15.20
2008,06,23,12,45,15.20
2008,06,23,12,46,15.10
2008,06,23,12,47,15.10
2008,06,23,12,48,15.10
2008,06,23,12,49,15.10
2008,06,23,12,50,15.10
2008,06,23,12,51,15.20
2008,06,23,12,52,15.30
2008,06,23,12,53,15.30
2008,06,23,12,54,15.30
2008,06,23,12,55,15.30
2008,06,23,12,56,15.30
2008,06,23,12,57,15.20
2008,06,23,12,58,15.20
2008,06,23,12,59,15.20
2008,06,23,13,00,15.10
2008,06,23,13,01,15.00
2008,06,23,13,02,14.90
2008,06,23,13,03,15.00
2008,06,23,13,04,15.10
2008,06,23,13,05,15.10
2008,06,23,13,06,15.20
2008,06,23,13,07,15.20
2008,06,23,13,08,15.40
2008,06,23,13,09,15.60
2008,06,23,13,10,15.70
2008,06,23,13,11,15.80
2008,06,23,13,12,15.90
2008,06,23,13,13,15.90
2008,06,23,13,14,15.80
2008,06,23,13,15,15.80
2008,06,23,13,16,15.80
2008,06,23,13,17,15.80
2008,06,23,13,18,15.80
2008,06,23,13,19,15.90
2008,06,23,13,20,15.90
2008,06,23,13,21,15.80
2008,06,23,13,22,15.80
2008,06,23,13,23,15.70
2008,06,23,13,24,15.70
2008,06,23,13,25,15.70
2008,06,23,13,26,15.70
2008,06,23,13,27,15.80
2008,06,23,13,28,15.80
2008,06,23,13,29,15.80
2008,06,23,13,30,15.80
2008,06,23,13,31,15.80
2008,06,23,13,32,15.80
2008,06,23,13,33,15.80
2008,06,23,13,34,15.80
2008,06,23,13,35,15.80
2008,06,23,13,36,15.80
2008,06,23,13,37,15.80
2008,06,23,13,38,15.80
2008,06,23,13,39,15.80
2008,06,23,13,40,15.80
2008,06,23,13,56,16.60
2008,06,23,13,57,16.60
2008,06,23,13,58,16.60
2008,06,23,13,59,16.40
2008,06,23,14,00,16.40
2008,06,23,14,01,16.30
2008,06,23,14,02,16.20
2008,06,23,14,03,16.20
2008,06,23,14,04,16.30
2008,06,23,14,05,16.40
2008,06,23,14,06,16.50
2008,06,23,14,07,16.60
2008,06,23,14,08,16.60
2008,06,23,14,09,16.70
2008,06,23,14,10,16.80
2008,06,23,14,11,16.80
2008,06,23,14,12,16.90
2008,06,23,14,13,16.90
2008,06,23,14,14,17.10
2008,06,23,14,15,17.20
2008,06,23,14,16,17.20
2008,06,23,14,17,17.20
2008,06,23,14,18,17.20
2008,06,23,14,19,17.20
2008,06,23,14,20,17.20
2008,06,23,14,21,17.20
2008,06,23,14,22,17.20
2008,06,23,14,23,17.20
2008,06,23,14,24,17.20
2008,06,23,14,25,17.20
2008,06,23,14,26,17.20
2008,06,23,14,27,17.20
2008,06,23,14,28,17.30
2008,06,23,14,29,17.30
2008,06,23,14,30,17.20
2008,06,23,14,31,17.00
2008,06,23,14,32,16.90
2008,06,23,14,33,16.80
2008,06,23,14,34,16.80
2008,06,23,14,35,16.80
2008,06,23,14,36,16.80
2008,06,23,14,37,16.80
2008,06,23,14,38,16.90
2008,06,23,14,39,17.00
2008,06,23,14,40,17.10
2008,06,23,14,41,17.20
2008,06,23,14,42,17.30
2008,06,23,14,43,17.30
2008,06,23,14,44,17.30
2008,06,23,14,45,17.30
2008,06,23,14,46,17.30
2008,06,23,14,47,17.30
2008,06,23,14,48,17.20
2008,06,23,14,49,17.20
2008,06,23,14,50,17.30
2008,06,23,14,51,17.40
2008,06,23,14,52,17.50
2008,06,23,14,53,17.70
2008,06,23,14,54,17.80
2008,06,23,14,55,18.00
2008,06,23,14,56,18.10
2008,06,23,14,57,18.20
2008,06,23,14,58,18.20
2008,06,23,14,59,18.30
2008,06,23,15,00,18.30
2008,06,23,15,01,18.30
2008,06,23,15,02,18.10
2008,06,23,15,03,17.90
2008,06,23,15,04,17.80
2008,06,23,15,05,17.80
2008,06,23,15,06,17.80
2008,06,23,15,07,17.80
2008,06,23,15,08,17.80
2008,06,23,15,09,17.80
2008,06,23,15,10,17.80
2008,06,23,15,11,17.80
2008,06,23,15,12,17.90
2008,06,23,15,13,18.20
2008,06,23,15,14,18.10
2008,06,23,15,15,18.00
2008,06,23,15,16,17.90
2008,06,23,15,17,17.90
2008,06,23,15,18,17.90
2008,06,23,15,19,17.90
2008,06,23,15,20,17.90
2008,06,23,15,21,18.10
2008,06,23,15,22,18.20
2008,06,23,15,23,18.20
2008,06,23,15,24,18.20
2008,06,23,15,25,18.20
2008,06,23,15,26,18.20
2008,06,23,15,27,18.20
2008,06,23,15,28,18.30
2008,06,23,15,29,18.20
2008,06,23,15,30,18.20
2008,06,23,15,31,18.10
2008,06,23,15,32,17.90
2008,06,23,15,33,17.90
2008,06,23,15,34,17.90
2008,06,23,15,35,17.90
2008,06,23,15,36,17.80
2008,06,23,15,37,17.90
2008,06,23,15,38,17.90
2008,06,23,15,39,17.80
2008,06,23,15,40,17.80
2008,06,23,15,41,17.90
2008,06,23,15,42,18.00
2008,06,23,15,43,18.20
2008,06,23,15,44,18.20
2008,06,23,15,45,18.20
2008,06,23,15,46,18.40
2008,06,23,15,47,18.50
2008,06,23,15,48,18.60
2008,06,23,15,49,18.60
2008,06,23,15,50,18.70
2008,06,23,15,51,18.70
2008,06,23,15,52,18.70
2008,06,23,15,53,18.60
2008,06,23,15,54,18.70
2008,06,23,15,55,18.80
2008,06,23,15,56,18.80
2008,06,23,15,57,18.70
2008,06,23,15,58,18.60
2008,06,23,15,59,18.40
2008,06,23,16,00,18.20
2008,06,23,16,01,18.20
2008,06,23,16,02,18.20
2008,06,23,16,03,18.20
2008,06,23,16,04,18.20
2008,06,23,16,05,18.20
2008,06,23,16,06,18.20
2008,06,23,16,07,18.20
2008,06,23,16,08,18.20
2008,06,23,16,09,18.20
2008,06,23,16,10,18.20
2008,06,23,16,11,18.20
2008,06,23,16,12,18.20
2008,06,23,16,13,18.20
2008,06,23,16,46,17.20
2008,06,23,16,47,17.20
2008,06,23,16,48,17.20
2008,06,23,16,49,17.20
2008,06,23,16,50,17.20
2008,06,23,16,51,17.20
2008,06,23,16,52,17.30
2008,06,23,16,53,17.40
2008,06,23,16,54,17.40
2008,06,23,16,55,17.30
2008,06,23,16,56,17.40
2008,06,23,16,57,17.30
2008,06,23,16,58,17.30
2008,06,23,16,59,17.20
2008,06,23,17,00,17.10
2008,06,23,17,01,17.10
2008,06,23,17,02,17.10
2008,06,23,17,03,17.00
2008,06,23,17,04,16.90
2008,06,23,17,05,16.80
2008,06,23,17,06,16.70
2008,06,23,17,07,16.70
2008,06,23,17,08,16.50
2008,06,23,17,09,16.20
2008,06,23,17,10,16.10
2008,06,23,17,11,15.90
2008,06,23,17,12,15.80
2008,06,23,17,13,15.80
2008,06,23,17,14,15.70
2008,06,23,17,15,15.70
2008,06,23,17,16,15.70
2008,06,23,17,17,15.70
2008,06,23,17,18,15.60
2008,06,23,17,19,15.60
2008,06,23,17,20,15.50
2008,06,23,17,21,15.50
2008,06,23,17,22,15.50
2008,06,23,17,23,15.30
2008,06,23,17,24,15.30
2008,06,23,17,25,15.30
2008,06,23,17,26,15.30
2008,06,23,17,27,15.30
2008,06,23,17,28,15.80
2008,06,23,17,29,15.80
2008,06,23,17,30,15.90
2008,06,23,17,31,16.10
2008,06,23,17,32,16.30
2008,06,23,17,33,16.40
2008,06,23,17,34,16.50
2008,06,23,17,35,16.60
2008,06,23,17,36,16.70
2008,06,23,17,37,16.80
2008,06,23,17,38,16.90
2008,06,23,17,39,16.90
2008,06,23,17,40,17.10
2008,06,23,17,41,17.20
2008,06,23,17,42,17.20
2008,06,23,17,43,17.20
2008,06,23,17,44,17.30
2008,06,23,17,45,17.30
2008,06,23,17,46,17.30
2008,06,23,17,47,17.40
2008,06,23,17,48,17.40
2008,06,23,17,49,17.50
2008,06,23,17,50,17.50
2008,06,23,17,51,17.40
2008,06,23,17,52,17.40
2008,06,23,17,53,17.40
2008,06,23,17,54,17.40
2008,06,23,17,55,17.40
2008,06,23,17,56,17.50
2008,06,23,17,57,17.50
2008,06,23,17,58,17.50
2008,06,23,17,59,17.50
2008,06,23,18,00,17.50
2008,06,23,18,01,17.50
2008,06,23,18,02,17.40
2008,06,23,18,03,17.40
2008,06,23,18,04,17.40
2008,06,23,18,05,17.30
2008,06,23,18,06,17.30
2008,06,23,18,07,17.30
2008,06,23,18,08,17.30
2008,06,23,18,09,17.30
2008,06,23,18,10,17.30
2008,06,23,18,11,17.40
2008,06,23,18,12,17.40
2008,06,23,18,13,17.40
2008,06,23,18,14,17.30
2008,06,23,18,15,17.30
2008,06,23,18,16,17.30
2008,06,23,18,17,17.30
2008,06,23,18,18,17.30
2008,06,23,18,19,17.30
2008,06,23,18,20,17.30